User: anonymous   Login
Location: Laguna de la Cañada del Gallo
(40.3974°N, 5.2096°W)
Time: 11:43:24
(UTC+00:00)
Language:

Cosmos 1354 Rocket - Orbit

View from above orbital plane
View from above orbital plane
View from above satellite
View from above satellite

Ground track
Ground track

The orbit data is extracted from the following two-line orbital elements,

1 13149U 82037B   24171.63205260  .00000236  00000-0  90192-4 0  9993
2 13149  74.0410 240.6566 0012834 182.5158 177.5932 14.36012721204538
Epoch (UTC): 19 June 2024 15:10:09
Eccentricity: 0.0012834
inclination: 74.0410°
perigee height: 762 km
apogee height: 781 km
right ascension of ascending node: 240.6566°
argument of perigee: 182.5158°
revolutions per day: 14.36012721
mean anomaly at epoch: 177.5932°
orbit number at epoch: 20453

The dashed part of the orbit path shows where the satellite is in the earth's shadow,  

DLR